Regional Weather Roundup
Issued by NWS

Home | Current Version | Previous Version | Text Only | Print | Product List | Glossary Off
Versions: 1 2 3 4 5 6 7 8 9 10 11 12 13 14 15 16 17 18 19 20 21 22 23 24 25 26 27 28 29 30 31 32 33 34 35 36 37 38 39 40 41 42 43 44 45 46 47 48 49 50

000
ASUS45 KABQ 230410
RWRNM
WEATHER ROUNDUP FOR NEW MEXICO
NATIONAL WEATHER SERVICE ALBUQUERQUE NM
1000 PM MDT WED OCT 22 2014

NOTE: "FAIR" MEANS FEW OR NO CLOUDS BELOW 12,000 FEET AGL WITH NO
       SIGNIFICANT WEATHER OR OBSTRUCTIONS TO VISION.

      THIS PRODUCT IS RELEASED AS TWO VERSIONS.  ONE VERSION NEAR
      THE TOP OF THE HOUR CONTAINING PRELIMINARY DATA FROM ALBUQUERQUE
      AND OTHER STATIONS.  A FINAL VERSION WITH ADDITIONAL DATA IS
      ISSUED ABOUT 10 MINUTES AFTER THE HOUR.

NMZ501-503-504-510>518-230500-
NORTHWEST PLATEAU/NORTHCENTRAL MOUNTAINS

CITY           SKY/WX    TMP DP  RH WIND       PRES   REMARKS
FARMINGTON     CLEAR     52  33  48 NE3       30.19R
LOS ALAMOS     CLEAR     57  33  40 W8        30.28R
SANTA FE       PTCLDY    51  38  60 CALM      30.21S
TAOS           MOCLDY    45  30  57 E8        30.28R
ANGEL FIRE     FAIR      36  30  80 CALM      30.34R

$$
NMZ402-403-502-505>509-230500-
WESTCENTRAL MOUNTAINS/SOUTHWEST MOUNTAINS

CITY           SKY/WX    TMP DP  RH WIND       PRES   REMARKS
GALLUP         CLEAR     46  36  68 NE6       30.26R
GRANTS         CLEAR     43  34  70 NW7       30.27R
SILVER CITY    CLEAR     54  50  87 N6        30.22S

$$
NMZ407-409-411-412-230500-
SOUTHERN DESERTS

CITY           SKY/WX    TMP DP  RH WIND       PRES   REMARKS
LORDSBURG      FAIR      57  48  72 MISG      30.14S
DEMING         CLEAR     57  52  83 CALM      30.15R
LAS CRUCES     CLEAR     59  53  79 CALM      30.16S
HOLLOMAN AFB   PTCLDY    60  51  74 E6        30.13R
T OR C         PTCLDY    64  49  57 S3        30.16R

$$
NMZ519>523-230500-
CENTRAL VALLEYS/CENTRAL HIGHLANDS

CITY           SKY/WX    TMP DP  RH WIND       PRES   REMARKS
ALBUQUERQUE    CLEAR     59  40  49 S6        30.18R
DOUBLE EAGLE   CLEAR     55  43  62 SW8       30.21R
MORIARTY ARPT  FAIR      48  39  72 CALM      30.23R
CLINES CORNERS CLEAR     48  34  58 W7        30.25R
BELEN          NOT AVBL
SOCORRO        FAIR      59  49  69 S7        30.16S

$$
NMZ524>526-539-540-230500-
SOUTHCENTRAL MOUNTAINS

CITY           SKY/WX    TMP DP  RH WIND       PRES   REMARKS
RUIDOSO        CLEAR     50  45  81 W8        30.29R

$$
NMZ527>531-230500-
NORTHEAST HIGHLANDS/NORTHEAST PLAINS

CITY           SKY/WX    TMP DP  RH WIND       PRES   REMARKS
LAS VEGAS      CLEAR     53  32  44 CALM      30.22S
RATON          CLEAR     52  39  61 N9        30.19R
CLAYTON        PTCLDY    56  44  64 CALM      30.14R

$$
NMZ532>537-230500-
EASTCENTRAL PLAINS

CITY           SKY/WX    TMP DP  RH WIND       PRES   REMARKS
TUCUMCARI      CLEAR     62  54  74 S10       30.08R
CANNON AFB     CLEAR     58  56  93 S9        30.15R
CLOVIS AIRPORT CLEAR     57  55  94 S12       30.17S

$$
NMZ028-029-538-230500-
SOUTHEAST PLAINS

CITY           SKY/WX    TMP DP  RH WIND       PRES   REMARKS
ROSWELL        CLEAR     61  58  90 S7        30.11R
CARLSBAD       CLEAR     63  60  90 S8        30.11R
HOBBS          CLEAR     57  57 100 SE6       30.15S


$$



USA.gov is the U.S. government's official web portal to all federal, state and local government web resources and services.